EW0195 Weather Reports


time (UTC)temp
C
wind
direction
speed
KPH
gust
KPH
rain 1hr
cm
rain 24hr
cm
rain mn
cm
humidity
%
barometer
mb
20260506044452 20 220 8.0 20.9 0.00 0.00 0.00 65 1010.2
20260506034452 20 294 8.0 17.7 0.00 0.00 0.00 63 1010.3
20260506032952 20 314 8.0 17.7 0.00 0.00 0.00 63 1010.2
20260506031452 20 288 8.0 17.7 0.00 0.00 0.00 62 1010.2
20260506025954 20 266 8.0 25.7 0.00 0.00 0.00 62 1010.3
20260506024451 20 245 8.0 16.1 0.00 0.00 0.00 62 1010.4
20260506022952 20 284 9.7 17.7 0.00 0.00 0.00 61 1010.4
20260506021452 20 267 8.0 16.1 0.00 0.00 0.00 60 1010.4
20260506015955 21 288 11.3 20.9 0.00 0.00 0.00 59 1010.3
20260506014452 21 267 9.7 22.5 0.00 0.00 0.00 58 1010.1
20260506012952 21 266 9.7 19.3 0.00 0.00 0.00 57 1010.0
20260506011452 21 287 12.9 24.1 0.00 0.00 0.00 56 1009.8
20260506005955 22 288 9.7 22.5 0.00 0.00 0.00 55 1009.7
20260506004452 22 298 9.7 22.5 0.00 0.00 0.00 54 1009.5
20260506002952 22 249 11.3 24.1 0.00 0.00 0.00 52 1009.4
20260506001452 22 267 9.7 20.9 0.00 0.00 0.00 50 1009.3
20260505235955 22 327 6.4 16.1 0.00 0.00 0.00 49 1009.1
20260505232952 23 323 9.7 19.3 0.00 0.00 0.00 47 1008.9
20260505231451 23 299 11.3 20.9 0.00 0.00 0.00 47 1009.0
20260505225955 24 300 11.3 24.1 0.00 0.00 0.00 46 1008.9
20260505224453 24 276 14.5 37.0 0.00 0.00 0.00 45 1008.9
20260505222952 25 294 14.5 30.6 0.00 0.00 0.00 45 1008.9
20260505215955 25 295 11.3 32.2 0.00 0.00 0.00 45 1009.0
20260505214453 25 314 14.5 30.6 0.00 0.00 0.00 45 1009.0
20260505212952 25 304 12.9 27.4 0.00 0.00 0.00 45 1008.7
20260505211452 25 311 17.7 35.4 0.00 0.00 0.00 44 1008.8
20260505205956 25 302 14.5 37.0 0.00 0.00 0.00 45 1008.8
20260505202952 25 300 16.1 29.0 0.00 0.00 0.00 45 1008.9
20260505201452 25 288 17.7 35.4 0.00 0.00 0.00 46 1009.0
20260505195955 25 317 16.1 40.2 0.00 0.00 0.00 45 1009.0
20260505194452 25 308 16.1 30.6 0.00 0.00 0.00 45 1009.2
20260505192952 25 301 12.9 43.5 0.00 0.00 0.00 45 1009.2
20260505191451 25 290 16.1 35.4 0.00 0.00 0.00 46 1009.4
20260505185955 25 276 14.5 32.2 0.00 0.00 0.00 47 1009.6
20260505184452 25 318 14.5 40.2 0.00 0.00 0.00 47 1009.8
20260505182952 25 305 14.5 30.6 0.00 0.00 0.00 45 1010.0
20260505181453 25 315 16.1 33.8 0.00 0.00 0.00 46 1010.2
20260505175956 25 282 11.3 27.4 0.00 0.00 0.00 47 1010.4
20260505174451 24 293 12.9 25.7 0.00 0.00 0.00 52 1010.4
20260505172952 24 302 12.9 29.0 0.00 0.00 0.00 52 1010.5
20260505171452 23 274 12.9 22.5 0.00 0.00 0.00 51 1010.7
20260505162952 23 274 11.3 19.3 0.00 0.00 0.00 55 1011.2
20260505161452 22 293 9.7 17.7 0.00 0.00 0.00 55 1011.2
20260505151451 22 248 11.3 19.3 0.00 0.00 0.00 57 1011.4
20260505124451 17 307 8.0 17.7 0.00 0.00 0.00 67 1012.0
20260505122952 17 314 9.7 16.1 0.00 0.00 0.00 66 1011.9
20260505121451 17 328 11.3 20.9 0.00 0.00 0.00 67 1011.7
20260505115954 16 307 11.3 20.9 0.00 0.00 0.00 68 1011.6
20260505114452 16 315 9.7 19.3 0.00 0.00 0.00 70 1011.5
20260505112952 15 315 9.7 17.7 0.00 0.00 0.00 71 1011.4
20260505111454 15 316 11.3 24.1 0.00 0.00 0.00 72 1011.4
20260505101451 14 308 4.8 11.3 0.00 0.00 0.00 73 1010.7
20260505095954 14 299 4.8 11.3 0.00 0.00 0.00 74 1010.7
20260505094452 15 329 4.8 9.7 0.00 0.00 0.00 73 1010.6
20260505092951 15 314 4.8 11.3 0.00 0.00 0.00 73 1010.5
20260505085955 15 328 6.4 17.7 0.00 0.00 0.00 73 1010.4
20260505084451 15 323 8.0 17.7 0.00 0.00 0.00 73 1010.3
20260505082952 15 303 6.4 14.5 0.00 0.00 0.00 74 1010.4
20260505081452 15 323 4.8 11.3 0.00 0.00 0.00 73 1010.4
20260505075955 16 252 6.4 14.5 0.00 0.00 0.00 72 1010.4
20260505074452 15 314 8.0 14.5 0.00 0.00 0.00 73 1010.2
20260505072951 15 302 4.8 11.3 0.00 0.00 0.00 74 1010.1
20260505071451 15 262 4.8 8.0 0.00 0.00 0.00 75 1010.1
20260505065954 15 302 4.8 11.3 0.00 0.00 0.00 75 1010.5
20260505064452 15 311 3.2 9.7 0.00 0.00 0.00 76 1010.5
20260505062953 15 262 1.6 8.0 0.00 0.00 0.00 75 1010.4
20260505055955 15 295 1.6 9.7 0.00 0.00 0.00 73 1010.4